Total_Precipitation_Accumulation
0.00 0.00 0.01 0.01 0.01 0.01 0.03 0.04 0.08 0.11 0.08 0.10 0.24 0.38 0.37 0.40 0.52 0.63 0.85 1.04 1.22 1.32 1.56 1.74 1.78 1.93 2.00 2.26 2.48 2.68 3.14 3.31 3.21 2.98 2.66 2.49 2.38 2.33 2.22 2.07 1.90 1.86 1.88 1.98
0.01 0.02 0.01 0.00 0.01 0.01 0.04 0.07 0.10 0.11 0.08 0.08 0.20 0.36 0.41 0.54 0.74 0.79 0.83 0.92 1.04 1.30 1.52 1.62 1.64 1.59 1.85 2.31 2.58 2.62 2.57 2.69 2.74 2.67 2.58 2.55 2.60 2.36 2.15 2.03 1.85 1.72 1.76 1.85
0.03 0.03 0.01 0.01 0.01 0.01 0.03 0.05 0.08 0.11 0.10 0.09 0.18 0.42 0.55 0.68 0.76 0.86 0.94 0.97 1.09 1.30 1.47 1.57 1.56 1.48 1.54 1.68 1.85 1.95 1.98 1.90 1.89 1.96 2.11 2.19 2.25 2.06 1.89 1.82 1.76 1.64 1.59 1.54
0.02 0.02 0.02 0.03 0.03 0.03 0.05 0.05 0.04 0.04 0.09 0.16 0.25 0.66 0.84 0.76 0.81 0.97 0.97 0.97 1.14 1.39 1.31 1.29 1.33 1.27 1.28 1.36 1.45 1.47 1.51 1.51 1.54 1.64 1.74 1.75 1.75 1.65 1.62 1.63 1.55 1.50 1.44 1.40
0.04 0.03 0.03 0.05 0.05 0.04 0.04 0.03 0.04 0.05 0.11 0.17 0.24 0.52 0.83 1.04 1.09 0.97 0.91 0.86 1.02 1.10 0.97 0.91 0.96 0.96 0.98 0.99 1.10 1.19 1.29 1.30 1.30 1.33 1.38 1.42 1.40 1.41 1.43 1.37 1.30 1.24 1.21 1.27
0.04 0.04 0.03 0.03 0.03 0.03 0.03 0.04 0.09 0.16 0.26 0.43 0.38 0.48 0.81 1.08 1.22 0.98 0.88 0.83 0.89 0.87 0.83 0.88 0.87 0.81 0.83 0.90 0.99 1.07 1.15 1.17 1.18 1.18 1.19 1.20 1.20 1.20 1.19 1.16 1.17 1.13 1.09 1.03
0.11 0.10 0.07 0.05 0.04 0.04 0.04 0.10 0.35 0.59 0.75 0.75 0.51 0.56 0.90 0.93 0.92 0.85 0.81 0.86 0.88 0.80 0.72 0.70 0.70 0.72 0.78 0.80 0.80 0.82 0.86 0.92 0.87 0.86 0.91 0.92 0.92 0.91 0.92 0.92 0.89 0.83 0.75 0.74
0.16 0.23 0.12 0.07 0.06 0.06 0.07 0.12 0.40 0.52 0.45 0.53 0.49 0.74 1.12 0.90 0.83 0.75 0.77 0.86 0.81 0.66 0.57 0.55 0.54 0.55 0.58 0.58 0.55 0.56 0.62 0.70 0.74 0.72 0.72 0.63 0.59 0.58 0.57 0.66 0.66 0.61 0.57 0.56
0.09 0.10 0.06 0.05 0.05 0.07 0.12 0.14 0.19 0.34 0.30 0.36 0.47 0.74 0.95 0.81 0.77 0.80 0.89 0.92 0.83 0.63 0.49 0.43 0.40 0.39 0.38 0.37 0.40 0.46 0.52 0.58 0.63 0.61 0.57 0.51 0.46 0.43 0.43 0.47 0.53 0.54 0.58 0.54
0.04 0.03 0.04 0.04 0.04 0.07 0.11 0.11 0.13 0.28 0.33 0.37 0.40 0.71 0.91 0.99 0.96 0.88 0.91 0.80 0.58 0.44 0.34 0.29 0.25 0.24 0.24 0.26 0.30 0.38 0.42 0.42 0.44 0.44 0.43 0.38 0.36 0.37 0.39 0.40 0.42 0.44 0.47 0.50
0.02 0.01 0.03 0.05 0.07 0.08 0.11 0.15 0.22 0.31 0.30 0.40 0.49 0.63 0.62 0.68 0.79 0.85 0.79 0.61 0.40 0.29 0.21 0.20 0.20 0.20 0.21 0.21 0.25 0.32 0.39 0.42 0.43 0.42 0.41 0.35 0.30 0.29 0.30 0.31 0.33 0.39 0.41 0.44
0.01 0.01 0.02 0.07 0.10 0.09 0.09 0.12 0.21 0.33 0.30 0.31 0.41 0.48 0.31 0.32 0.42 0.45 0.42 0.34 0.27 0.21 0.19 0.21 0.23 0.23 0.21 0.23 0.27 0.34 0.39 0.44 0.48 0.49 0.50 0.46 0.40 0.36 0.34 0.32 0.30 0.31 0.35 0.38
0.01 0.01 0.03 0.21 0.34 0.20 0.12 0.10 0.12 0.16 0.17 0.17 0.28 0.33 0.23 0.26 0.32 0.41 0.49 0.49 0.41 0.32 0.23 0.19 0.21 0.23 0.24 0.28 0.33 0.43 0.48 0.50 0.52 0.58 0.65 0.64 0.51 0.46 0.46 0.40 0.34 0.32 0.32 0.32
0.01 0.01 0.04 0.20 0.26 0.17 0.13 0.11 0.08 0.13 0.21 0.18 0.17 0.22 0.23 0.26 0.32 0.40 0.44 0.40 0.32 0.25 0.20 0.17 0.20 0.23 0.26 0.29 0.29 0.32 0.36 0.38 0.44 0.46 0.55 0.66 0.61 0.50 0.38 0.30 0.31 0.33 0.33 0.34
0.02 0.01 0.01 0.03 0.05 0.08 0.13 0.10 0.08 0.09 0.14 0.26 0.20 0.18 0.20 0.20 0.20 0.24 0.25 0.21 0.17 0.16 0.14 0.15 0.18 0.21 0.25 0.25 0.22 0.19 0.17 0.17 0.23 0.28 0.35 0.44 0.39 0.33 0.31 0.28 0.21 0.20 0.24 0.29
0.01 0.01 0.00 0.01 0.04 0.06 0.09 0.11 0.08 0.06 0.06 0.09 0.12 0.18 0.19 0.18 0.19 0.20 0.19 0.17 0.16 0.16 0.13 0.12 0.14 0.17 0.19 0.16 0.11 0.08 0.08 0.11 0.18 0.24 0.29 0.36 0.35 0.28 0.23 0.19 0.14 0.14 0.20 0.28
0.02 0.01 0.01 0.02 0.03 0.05 0.11 0.11 0.07 0.04 0.03 0.04 0.13 0.21 0.20 0.20 0.19 0.18 0.16 0.14 0.12 0.10 0.08 0.07 0.06 0.06 0.05 0.05 0.04 0.05 0.06 0.07 0.15 0.24 0.32 0.37 0.42 0.42 0.31 0.18 0.16 0.19 0.25 0.33
0.04 0.02 0.01 0.02 0.05 0.16 0.13 0.06 0.04 0.04 0.03 0.03 0.06 0.09 0.10 0.09 0.07 0.06 0.06 0.05 0.03 0.03 0.03 0.03 0.02 0.02 0.02 0.02 0.04 0.07 0.06 0.08 0.13 0.23 0.31 0.34 0.38 0.40 0.36 0.31 0.29 0.32 0.39 0.45
0.06 0.04 0.02 0.03 0.05 0.11 0.07 0.06 0.06 0.06 0.05 0.03 0.04 0.04 0.04 0.04 0.04 0.06 0.03 0.02 0.01 0.01 0.01 0.01 0.02 0.01 0.02 0.02 0.06 0.11 0.12 0.15 0.20 0.30 0.39 0.40 0.42 0.42 0.37 0.35 0.39 0.43 0.49 0.50
0.06 0.06 0.07 0.06 0.09 0.13 0.10 0.10 0.10 0.06 0.12 0.08 0.05 0.04 0.03 0.02 0.08 0.11 0.05 0.01 0.01 0.02 0.02 0.02 0.02 0.03 0.04 0.07 0.11 0.16 0.22 0.27 0.35 0.44 0.50 0.49 0.53 0.56 0.52 0.52 0.54 0.53 0.57 0.53
0.11 0.08 0.08 0.10 0.13 0.14 0.13 0.13 0.10 0.13 0.19 0.04 0.02 0.01 0.01 0.02 0.05 0.05 0.03 0.01 0.01 0.01 0.02 0.03 0.04 0.04 0.07 0.10 0.14 0.24 0.29 0.33 0.37 0.40 0.48 0.55 0.62 0.69 0.73 0.77 0.74 0.70 0.66 0.64
0.09 0.11 0.13 0.15 0.22 0.21 0.10 0.07 0.11 0.12 0.05 0.02 0.02 0.02 0.02 0.02 0.01 0.01 0.01 0.01 0.01 0.02 0.03 0.04 0.06 0.06 0.08 0.11 0.18 0.25 0.29 0.32 0.36 0.41 0.50 0.57 0.63 0.64 0.73 0.98 0.98 0.99 0.95 0.83
0.06 0.07 0.09 0.13 0.16 0.09 0.06 0.05 0.06 0.05 0.02 0.02 0.03 0.03 0.03 0.02 0.02 0.02 0.02 0.02 0.02 0.02 0.03 0.05 0.09 0.11 0.14 0.18 0.29 0.41 0.38 0.39 0.44 0.50 0.57 0.62 0.63 0.70 0.85 0.98 1.03 1.08 1.05 0.92
0.07 0.05 0.09 0.11 0.09 0.10 0.06 0.04 0.03 0.02 0.02 0.01 0.01 0.01 0.02 0.03 0.03 0.03 0.03 0.03 0.04 0.05 0.06 0.09 0.14 0.21 0.29 0.34 0.41 0.51 0.48 0.49 0.55 0.57 0.60 0.64 0.69 0.72 0.81 0.97 0.99 0.98 0.95 0.93
0.05 0.07 0.10 0.15 0.10 0.07 0.05 0.05 0.03 0.01 0.01 0.01 0.01 0.02 0.03 0.04 0.04 0.04 0.05 0.05 0.06 0.06 0.07 0.13 0.22 0.31 0.39 0.47 0.53 0.57 0.61 0.67 0.71 0.67 0.64 0.68 0.73 0.79 0.86 0.92 0.98 0.93 0.88 0.79
0.03 0.07 0.11 0.15 0.12 0.16 0.11 0.05 0.03 0.02 0.02 0.02 0.02 0.03 0.04 0.04 0.05 0.05 0.05 0.05 0.06 0.07 0.09 0.14 0.22 0.31 0.40 0.49 0.56 0.61 0.71 0.84 0.92 0.91 0.81 0.81 0.85 0.88 0.95 0.95 0.86 0.72 0.64 0.51